Powrót do katalogu

SL-14 DEB

AktywnyPO
NORAD 39971·DEBRIS·🇷🇺 Russia

Wystrzelony Aug 18, 1987 z Plesetsk Cosmodrome

Loading…

Następne Przeloty (najbliższe 24 godziny)

TLE

ŚwieżeSource: Space-Track

Epoka: Sep 14, 2026, 12:56 UTC

1 39971U 87068CX  26257.53907615  .00000713  00000-0  54934-3 0  9995
2 39971  82.4577 181.9804 0058016 170.2543 313.0825 13.90958016622348

Śledź SL-14 DEB w czasie rzeczywistym z AllMySat

Download on the App Store